Location: Saint-Palais-sur-Mer
(45.6429°N, 1.0859°W)
Time: 01:13:54
(UTC+01:00)

Tiros 1 despin weight - Pass Details

Date: 09 February 2026
Orbit: 556 x 593 km, 48.2° (Epoch: 13 March)

Event Time Altitude Azimuth Distance (km) Brightness Sun altitude
Rises 02:03:27 0° 285° (WNW) 2,759 - -57.7°
Reaches altitude 10° 02:06:06 10° 270° (W) 1,866 - -57.5°
Maximum altitude 02:09:22 22° 220° (SW) 1,283 - -57.3°
Drops below altitude 10° 02:12:39 10° 169° (S) 1,877 - -57.0°
Sets 02:15:19 0° 154° (SSE) 2,780 - -56.8°
